[[{"header":{"parameterUnit":"m.s-1","parameterCategory":1,"la1":30.2991,"la2":30.254,"lo1":-89.0895,"lo2":-89.0444,"dy":0.0017,"dx":0.0017,"nx":28,"ny":28,"refTime":"2024-08-06T03:00:00:Z","depth":0,"parameterNumber":2,"parameterNumberName":"U-component_of_WINDS"},"data":[0,0,0,0,0,0,0,0,0,0,0,0,0,0,0,0,0,0,0,0,0,0,0,0,0,0,0,0,0,0,0,0,0,0,0,0,0,0,0,0,0,0,0,0,0,0,0,0,0,0,0,0,0,0,0,0,0,0,2.8035,2.8036,0,2.809,2.809,2.8091,2.8065,2.8064,2.8063,2.8061,2.8121,2.8124,2.8127,0,0,0,0,0,0,0,0,0,0,0,0,0,2.7916,2.7919,2.8035,2.8036,2.8037,2.809,2.809,2.8091,2.8066,2.8064,2.8062,2.8061,2.812,2.8124,2.8127,0,0,0,0,0,0,0,0,0,0,0,0,0,2.7969,2.7919,2.8035,2.803,2.803,2.8089,2.809,2.8091,2.8066,2.8064,2.8062,2.806,2.8119,2.8124,2.8128,2.8197,0,0,2.8141,2.8143,0,0,0,0,0,0,0,0,2.7966,2.7974,2.803,2.8031,2.8031,2.8068,2.807,2.8127,2.8066,2.8053,2.8061,2.8059,2.8106,2.8111,2.8126,2.8199,2.8202,2.8142,2.8144,2.8146,2.8147,0,0,0,0,0,0,0,2.7963,2.7971,2.8057,2.8031,2.8032,2.8028,2.8033,2.8081,2.809,2.8054,2.8052,2.8058,2.8106,2.8122,2.8127,2.8203,2.8141,2.8145,2.8148,2.815,2.8341,2.8344,0,0,0,0,0,0,2.7958,2.7968,2.8055,2.8059,2.7993,2.8031,2.8037,2.8059,2.809,2.8092,2.806,2.8057,2.8116,2.8122,2.8129,2.8216,2.8146,2.815,2.8153,2.8339,2.8342,2.8345,0,0,0,0,0,0,2.7956,2.7966,2.8053,2.8013,2.8024,2.8036,2.806,2.8061,2.8077,2.8095,2.8097,2.8075,2.8114,2.8123,2.8181,2.8217,2.8152,2.8156,2.8336,2.834,2.8343,2.8387,0,0,0,0,0,0,2.7952,2.7965,2.799,2.8014,2.8026,2.8102,2.8062,2.8063,2.8084,2.8081,2.8109,2.8112,2.8113,2.8175,2.8185,2.8222,2.8159,2.8333,2.8338,2.8342,2.8382,2.8391,2.8399,0,0,0,0,0,2.7948,2.8,2.7991,2.8002,2.8056,2.8104,2.8111,2.811,2.8087,2.8113,2.8125,2.8111,2.8211,2.8181,2.8193,2.8231,2.8331,2.8336,2.8342,2.8378,2.8389,2.8399,0,0,0,0,0,0,2.798,2.8002,2.7993,2.8053,2.8077,2.8099,2.8132,2.8122,2.8153,2.8149,2.8148,2.8155,2.8216,2.8229,2.8195,2.8302,2.8268,2.8276,2.8291,2.8302,2.8311,2.8307,2.8163,0,0,0,0,0,2.7994,2.8028,2.8047,2.8098,2.8111,2.8119,2.814,2.8138,2.8163,2.8173,2.8189,2.8215,2.8253,2.8278,2.8314,2.8383,2.8392,2.8416,2.8425,2.8432,2.844,2.8483,2.8495,2.8363,2.8363,2.8363,0,0,2.8023,2.804,2.8062,2.8105,2.8123,2.8162,2.8128,2.8169,2.8199,2.8179,2.8236,2.8249,2.8279,2.8344,2.8374,2.8357,2.8478,2.8439,2.8445,2.8449,2.849,2.8502,2.8514,2.8367,2.8366,2.8365,0,0,2.8097,2.8111,2.8158,2.8177,2.8204,2.8211,2.8222,2.8247,2.8255,2.8311,2.8298,2.8335,2.8399,2.8422,2.8442,2.853,2.8519,2.8541,2.8587,2.8629,2.864,2.8649,2.8684,2.8696,2.8549,2.8549,2.8549,0,2.813,2.8186,2.8183,2.8227,2.8249,2.8232,2.8282,2.8301,2.8339,2.8356,2.8336,2.842,2.8438,2.8511,2.8533,2.8548,2.8564,2.8539,2.8638,2.8647,2.8656,2.869,2.8702,2.8551,2.8551,2.8551,2.8551,0,2.8228,2.8267,2.8302,2.834,2.8365,2.8411,2.8419,2.8445,2.8442,2.8451,2.8512,2.8533,2.8575,2.8592,2.8589,2.8666,2.8656,2.8637,2.8603,2.8671,2.8703,2.8716,2.8555,2.8554,2.8554,2.8553,0,0,2.8322,2.836,2.8373,2.8392,2.8423,2.8455,2.8502,2.8543,2.8567,2.8595,2.8638,2.8694,2.8679,2.8702,2.8701,2.8738,2.8811,2.8715,2.8716,2.8736,2.8903,2.8919,2.8934,2.8804,2.8806,2.8808,2.8902,0,2.8401,2.8482,2.8483,2.8559,2.8599,2.8586,2.8628,2.8653,2.8664,2.8701,2.8714,2.8755,2.8729,2.8744,2.8779,2.8795,2.8845,2.8787,2.8847,2.8849,2.8843,2.895,2.8966,2.9053,2.8914,2.8916,2.8918,0,2.8503,2.8535,2.8615,2.8645,2.8661,2.8699,2.8739,2.8773,2.8803,2.8809,2.8837,2.8832,2.8884,2.8847,2.8922,2.8883,2.8908,2.892,2.8923,2.8931,2.8889,2.8964,2.9081,2.9095,2.8936,2.8935,2.8934,0,2.8568,2.8631,2.8689,2.8705,2.874,2.8767,2.8783,2.8811,2.8837,2.8873,2.889,2.8931,2.8955,2.8988,2.8997,2.8968,2.9073,2.9035,2.9083,2.9083,2.9107,2.9106,2.9233,2.9118,2.9118,2.9117,2.9117,0,2.8658,2.8708,2.8719,2.8755,2.8813,2.8815,2.8873,2.8887,2.8913,2.8954,2.8945,2.8984,2.8991,2.9033,2.904,2.9104,2.9113,2.9122,2.9124,2.9125,2.9124,2.9142,2.9138,2.9121,2.912,2.9119,2.9119,0,2.8741,2.8749,2.8812,2.8841,2.8849,2.8891,2.8917,2.8953,2.8964,2.9016,2.9029,2.9046,2.9095,2.9106,2.9164,2.9169,2.9246,2.924,2.9236,2.9237,2.9285,2.9281,2.9431,2.9452,2.932,2.9321,2.9322,0,2.8799,2.8838,2.8871,2.8897,2.8915,2.8957,2.8984,2.8988,2.9017,2.9057,2.909,2.9137,2.9176,2.9256,2.9276,2.9322,2.9319,2.9368,2.9326,2.9327,2.9325,2.9323,2.933,2.9377,2.9379,2.938,2.9381,0,2.8902,2.8905,2.8943,2.8984,2.9016,2.9049,2.908,2.9103,2.9112,2.9146,2.9195,2.9226,2.9286,2.9336,2.9382,2.9402,2.9395,2.9394,2.9408,2.941,2.9408,2.9414,2.9262,2.9391,2.939,2.9389,2.9388,2.9388,2.8976,2.9012,2.9043,2.9087,2.9111,2.9141,2.9178,2.9194,2.9235,2.9284,2.9284,2.934,2.9374,2.9436,2.9459,2.9505,2.949,2.9509,2.9515,2.9521,2.9527,2.9398,2.9513,2.9513,2.9513,2.9512,2.9512,0,2.9082,2.9102,2.9142,2.9187,2.9223,2.9211,2.9246,2.9278,2.9327,2.9358,2.9397,2.9457,2.9506,2.953,2.958,2.9612,2.9611,2.9626,2.9625,2.9631,2.9535,2.952,2.9626,2.9626,2.9626,2.9626,2.9626,2.9626,2.9142,2.9203,2.9211,2.9286,2.9306,2.9359,2.9381,2.9411,2.9436,2.9504,2.9544,2.9559,2.959,2.9642,2.9688,2.9694,2.9714,2.9732,2.9737,2.9648,2.9637,2.9626,2.9611,2.9735,2.9736,2.9829,2.983,2.983]},{"header":{"parameterUnit":"m.s-1","parameterCategory":1,"la1":30.2991,"la2":30.254,"lo1":-89.0895,"lo2":-89.0444,"dy":0.0017,"dx":0.0017,"nx":28,"ny":28,"refTime":"2024-08-06T03:00:00:Z","depth":0,"parameterNumber":3,"parameterNumberName":"V-component_of_WINDS"},"data":[0,0,0,0,0,0,0,0,0,0,0,0,0,0,0,0,0,0,0,0,0,0,0,0,0,0,0,0,0,0,0,0,0,0,0,0,0,0,0,0,0,0,0,0,0,0,0,0,0,0,0,0,0,0,0,0,0,0,-0.2947,-0.2945,0,-0.2754,-0.2752,-0.2749,-0.2779,-0.2782,-0.2785,-0.2788,-0.2584,-0.2576,-0.2567,0,0,0,0,0,0,0,0,0,0,0,0,0,-0.3337,-0.333,-0.2948,-0.2945,-0.2943,-0.2754,-0.2752,-0.2749,-0.2778,-0.2782,-0.2786,-0.279,-0.2587,-0.2577,-0.2566,0,0,0,0,0,0,0,0,0,0,0,0,0,-0.3158,-0.3327,-0.2948,-0.2935,-0.2932,-0.2755,-0.2751,-0.2748,-0.2777,-0.2782,-0.2787,-0.2792,-0.259,-0.2578,-0.2565,-0.2387,0,0,-0.2526,-0.252,0,0,0,0,0,0,0,0,-0.3168,-0.3144,-0.2939,-0.2935,-0.2932,-0.2796,-0.2814,-0.2627,-0.2776,-0.2836,-0.2789,-0.2794,-0.265,-0.2632,-0.2585,-0.2377,-0.2369,-0.2525,-0.2517,-0.2511,-0.2508,0,0,0,0,0,0,0,-0.318,-0.3152,-0.2871,-0.2936,-0.2931,-0.2937,-0.2917,-0.2779,-0.2717,-0.2831,-0.2833,-0.281,-0.2649,-0.2597,-0.258,-0.2366,-0.2525,-0.2514,-0.2506,-0.2501,-0.2002,-0.1997,0,0,0,0,0,0,-0.3197,-0.3162,-0.2877,-0.2865,-0.3065,-0.2926,-0.2903,-0.2834,-0.2719,-0.2706,-0.2806,-0.2812,-0.2617,-0.2595,-0.2573,-0.2357,-0.2512,-0.25,-0.2492,-0.2008,-0.2001,-0.1995,0,0,0,0,0,0,-0.3206,-0.3172,-0.2885,-0.3014,-0.2978,-0.2914,-0.2836,-0.2828,-0.2777,-0.27,-0.2688,-0.2765,-0.262,-0.2591,-0.2434,-0.2351,-0.2494,-0.2482,-0.2014,-0.2006,-0.1998,-0.1924,0,0,0,0,0,0,-0.3217,-0.3174,-0.3107,-0.3012,-0.2971,-0.2749,-0.2831,-0.282,-0.2755,-0.2761,-0.2658,-0.2646,-0.2621,-0.2453,-0.2421,-0.2336,-0.2472,-0.2021,-0.2011,-0.2001,-0.1934,-0.1914,-0.1898,0,0,0,0,0,-0.3231,-0.3093,-0.3104,-0.3069,-0.2886,-0.2745,-0.2721,-0.2697,-0.2748,-0.2679,-0.263,-0.2649,-0.2365,-0.2436,-0.2401,-0.231,-0.2027,-0.2014,-0.2001,-0.1942,-0.1918,-0.1898,0,0,0,0,0,0,-0.3177,-0.308,-0.3091,-0.2919,-0.284,-0.275,-0.2662,-0.2673,-0.2576,-0.2586,-0.2559,-0.2535,-0.2375,-0.2327,-0.2408,-0.2132,-0.2203,-0.2183,-0.2169,-0.2146,-0.2129,-0.2143,-0.2462,0,0,0,0,0,-0.3146,-0.3041,-0.2961,-0.2817,-0.2777,-0.2726,-0.2664,-0.2653,-0.2569,-0.2535,-0.2475,-0.2391,-0.2283,-0.2212,-0.2109,-0.1927,-0.1905,-0.1848,-0.183,-0.1816,-0.1798,-0.1698,-0.1672,-0.1954,-0.1954,-0.1954,0,0,-0.3079,-0.3013,-0.2948,-0.2804,-0.2742,-0.2632,-0.2698,-0.2579,-0.2497,-0.2516,-0.2364,-0.2317,-0.2222,-0.2052,-0.1974,-0.2007,-0.1715,-0.18,-0.1789,-0.1779,-0.1683,-0.1656,-0.1632,-0.1945,-0.1947,-0.1948,0,0,-0.2901,-0.2841,-0.2714,-0.2651,-0.2557,-0.2525,-0.2494,-0.2402,-0.2372,-0.222,-0.2232,-0.2134,-0.1948,-0.188,-0.1821,-0.1619,-0.1633,-0.1586,-0.1492,-0.1395,-0.1373,-0.1353,-0.128,-0.1254,-0.1569,-0.1569,-0.1569,0,-0.2829,-0.2666,-0.2647,-0.2527,-0.2464,-0.2479,-0.235,-0.2289,-0.2164,-0.2119,-0.2159,-0.1927,-0.1864,-0.1678,-0.1629,-0.1581,-0.1544,-0.1597,-0.1378,-0.1358,-0.1339,-0.1269,-0.1242,-0.1564,-0.1564,-0.1565,-0.1565,0,-0.2582,-0.2469,-0.2378,-0.2261,-0.2186,-0.2062,-0.2023,-0.195,-0.1946,-0.1909,-0.1753,-0.1678,-0.156,-0.1515,-0.1509,-0.1328,-0.1352,-0.1385,-0.1455,-0.1307,-0.1241,-0.1215,-0.1557,-0.1558,-0.156,-0.1561,0,0,-0.2363,-0.2239,-0.2205,-0.2152,-0.205,-0.1961,-0.1838,-0.1725,-0.1662,-0.1576,-0.1471,-0.1315,-0.1345,-0.1278,-0.1264,-0.118,-0.1024,-0.1223,-0.122,-0.1188,-0.082,-0.0795,-0.0764,-0.1033,-0.1028,-0.1024,-0.0827,0,-0.2175,-0.196,-0.1939,-0.1745,-0.164,-0.1653,-0.1546,-0.147,-0.1433,-0.1337,-0.1295,-0.1184,-0.1233,-0.1193,-0.111,-0.1061,-0.0949,-0.1075,-0.0933,-0.0928,-0.0956,-0.073,-0.0703,-0.0521,-0.0802,-0.0797,-0.0794,0,-0.1927,-0.1836,-0.1632,-0.1545,-0.15,-0.1404,-0.1299,-0.1208,-0.1122,-0.1101,-0.1027,-0.1025,-0.0896,-0.0973,-0.0794,-0.088,-0.0821,-0.0788,-0.078,-0.0765,-0.0851,-0.0708,-0.0463,-0.0435,-0.0753,-0.0757,-0.0759,0,-0.1787,-0.1614,-0.1469,-0.1424,-0.1319,-0.1251,-0.1204,-0.1124,-0.1057,-0.0965,-0.0921,-0.0814,-0.0755,-0.0671,-0.064,-0.0699,-0.0462,-0.0536,-0.044,-0.044,-0.0388,-0.0392,-0.0129,-0.0352,-0.0352,-0.0353,-0.0353,0,-0.1578,-0.1452,-0.1405,-0.1316,-0.1175,-0.1153,-0.1014,-0.097,-0.0899,-0.08,-0.0805,-0.0712,-0.0677,-0.0577,-0.0552,-0.0408,-0.0381,-0.0359,-0.0353,-0.0358,-0.036,-0.0318,-0.0329,-0.0346,-0.0347,-0.0349,-0.035,0,-0.1398,-0.1361,-0.1205,-0.112,-0.1095,-0.0995,-0.0921,-0.0834,-0.0799,-0.0674,-0.0644,-0.0587,-0.0471,-0.0432,-0.029,-0.0273,-0.0105,-0.0111,-0.0134,-0.0133,-0.0039,-0.0048,0.0262,0.0304,0.0052,0.0054,0.0056,0,-0.1267,-0.1171,-0.1076,-0.1012,-0.0963,-0.0858,-0.0791,-0.0765,-0.0695,-0.0591,-0.0517,-0.0402,-0.0309,-0.0122,-0.0067,0.0041,0.0039,0.0139,0.0055,0.0047,0.0041,0.0035,0.0045,0.0156,0.0158,0.016,0.0162,0,-0.1037,-0.1025,-0.0929,-0.0826,-0.0747,-0.0664,-0.0584,-0.0531,-0.0493,-0.0413,-0.0296,-0.0224,-0.0081,0.0034,0.0144,0.0194,0.0186,0.0188,0.0216,0.0213,0.0196,0.0207,-0.009,0.0181,0.0179,0.0178,0.0177,0.0176,-0.0877,-0.0792,-0.0713,-0.0606,-0.0544,-0.047,-0.0384,-0.0339,-0.0242,-0.0125,-0.0115,0.0012,0.0095,0.0241,0.0297,0.0398,0.037,0.041,0.0421,0.0431,0.0439,0.0178,0.0418,0.0417,0.0417,0.0417,0.0416,0,-0.0647,-0.0597,-0.05,-0.0389,-0.0305,-0.0324,-0.0237,-0.0164,-0.0053,0.0024,0.0115,0.025,0.0361,0.0423,0.0534,0.0603,0.0602,0.0631,0.0627,0.0639,0.0457,0.0422,0.063,0.063,0.063,0.063,0.063,0.063,-0.0518,-0.0376,-0.0354,-0.0181,-0.0131,-0.0009,0.0043,0.0112,0.0173,0.0323,0.0414,0.0453,0.0525,0.064,0.0742,0.0757,0.0799,0.0832,0.0845,0.0674,0.0652,0.0631,0.0598,0.084,0.084,0.1018,0.102,0.1021]}]]